Location: Mascot Post Office (historical)
(40.2645°N, 99.5462°W)
Time: 02:40:58
(UTC+00:00)

Cosmos 1656 - Pass Details

Date: 14 July 2020
Orbit: 799 x 848 km, 71.1° (Epoch: 14 August)

Event Time Altitude Azimuth Distance (km) Brightness Sun altitude
Rises 09:15:22 0° 326° (NW) 3,314 7.0 -18.8°
Reaches altitude 10° 09:18:02 10° 315° (NW) 2,381 6.1 -18.5°
Maximum altitude 09:22:40 30° 257° (WSW) 1,423 4.5 -18.0°
Enters shadow 09:23:22 29° 243° (WSW) 1,453 4.4 -17.9°
